This is the latest recevied weather packets stored in our database for station/object DH9SB-6. If no packets are shown the sender has not sent any weather packets the latest 10 day(s).
| Time | Temp. | Humidity | Pressure | Rain* | Wind** | Luminosity | Snow |
|---|---|---|---|---|---|---|---|
| 1777747357 | 20° C | 40% | - | 0 mm | - | - | - |
| 1777746780 | 20.56° C | 40% | - | 0 mm | - | - | - |
| 1777746156 | 21.67° C | 38% | - | 0 mm | - | - | - |
| 1777745582 | 22.22° C | 35% | - | 0 mm | - | - | - |
| 1777744958 | 22.78° C | 28% | - | 0 mm | - | - | - |
| 1777744380 | 23.33° C | 26% | - | 0 mm | - | - | - |
| 1777743755 | 23.33° C | 25% | - | 0 mm | - | - | - |
| 1777743180 | 23.89° C | 25% | - | 0 mm | - | - | - |
| 1777742556 | 23.89° C | 24% | - | 0 mm | - | - | - |
| 1777742027 | 24.44° C | 23% | - | 0 mm | - | - | - |
| 1777741356 | 25° C | 23% | - | 0 mm | - | - | - |
| 1777740780 | 25.56° C | 23% | - | 0 mm | - | - | - |
| 1777740203 | 26.11° C | 22% | - | 0 mm | - | - | - |
| 1777739580 | 26.11° C | 22% | - | 0 mm | - | - | - |
| 1777738956 | 25.56° C | 22% | - | 0 mm | - | - | - |
| 1777738379 | 25.56° C | 21% | - | 0 mm | - | - | - |
| 1777737755 | 26.11° C | 22% | - | 0 mm | - | - | - |
| 1777737180 | 26.67° C | 21% | - | 0 mm | - | - | - |
| 1777736555 | 27.22° C | 21% | - | 0 mm | - | - | - |
| 1777735980 | 28.33° C | 20% | - | 0 mm | - | - | - |
| 1777735356 | 28.89° C | 20% | - | 0 mm | - | - | - |
| 1777734779 | 29.44° C | 20% | - | 0 mm | - | - | - |
| 1777734156 | 29.44° C | 17% | - | 0 mm | - | - | - |
| 1777733579 | 29.44° C | 19% | - | 0 mm | - | - | - |
| 1777732956 | 28.89° C | 20% | - | 0 mm | - | - | - |
* Rain latest hour (hover to see other rain measurements)
** Current wind speed in m/s (hover to see current wind gust speed)